Flag for French Polynesia Weather past 2 weeks in Gambier Islands, French Polynesia

Now
70 °F

Mild.


Feels Like: 68 °F
Forecast: 72 / 76 °F
Wind: 12 mph from North

Location: Rikitea

Current Time: Aug 30, 2015 at 12:03:54 AM

Latest Report: Aug 29, 2015 at 11:00 PM


Visibility: N/A

Pressure: 30.16 "Hg

Humidity: 89%

Dew point: 67 °F

Location of Gambier IslandsLocation

Historic Weather in Gambier Islands — Graph

°F

Gambier Islands temperature yesterday

Maximum temperature yesterday: 74 °F (at 11:00 AM)
Minimum temperature yesterday: 67 °F (at 6:00 AM)
Average temperature yesterday: 70 °F

Past Weeks' High & Low Weather Summary

 TemperatureHumidityPressure
High78 °F (Aug 19, 12:00 PM)100% (Aug 14, 10:00 PM)30.24 "Hg (Aug 14, 10:00 PM)
Low61 °F (Aug 26, 5:00 AM)52% (Aug 22, 3:00 PM)29.74 "Hg (Aug 19, 4:00 PM)
Average69 °F80%30.02 "Hg
* Reported Aug 14 10:00 PM — Aug 29 10:00 PM, Gambier Islands, Weather by CustomWeather, © 2015

Note: Actual official high and low records may vary slightly from our data, if they occured in-between our weather recording intervals... More about our weather records

Advertising

Gambier Islands weather history for previous 24 hours

 ConditionsComfort  
Time TempWeatherWind HumidityBarometerVisibility
10:00 PM
Sat, Aug 29
70 °FMild.10 mph88%30.16 "HgN/A
9:00 PM71 °FMild.12 mph84%30.17 "HgN/A
8:00 PM71 °FMild.13 mph80%30.15 "HgN/A
7:00 PM71 °FMild.13 mph79%30.13 "HgN/A
6:00 PM71 °FMild.12 mph77%30.12 "HgN/A
5:00 PM71 °FOvercast.12 mph78%30.11 "Hg12 mi
4:00 PM71 °FPartly sunny.12 mph75%30.10 "Hg19 mi
3:00 PM72 °FOvercast.12 mph73%30.09 "Hg19 mi
2:00 PM73 °FPartly sunny.12 mph73%30.10 "Hg19 mi
1:00 PM72 °FOvercast.12 mph72%30.11 "Hg12 mi
12:00 PM73 °FOvercast.10 mph71%30.15 "Hg12 mi
11:00 AM74 °FPartly sunny.9 mph71%30.18 "Hg12 mi
10:00 AM72 °FScattered clouds.10 mph75%30.18 "Hg19 mi
9:00 AM72 °FPartly sunny.10 mph72%30.18 "Hg19 mi
8:00 AM71 °FScattered clouds.9 mph78%30.17 "Hg19 mi
7:00 AM67 °FOvercast.12 mph91%30.16 "Hg6 mi
6:00 AM67 °FScattered clouds.8 mph91%30.16 "Hg12 mi
5:00 AM67 °FMild.6 mph91%30.15 "HgN/A
4:00 AM67 °FMild.6 mph91%30.15 "HgN/A
3:00 AM67 °FMild.5 mph89%30.16 "HgN/A
2:00 AM68 °FMild.6 mph84%30.16 "HgN/A
1:00 AM68 °FMild.5 mph83%30.19 "HgN/A
12:00 AM68 °FMild.5 mph80%30.20 "HgN/A
Weather by CustomWeather, © 2015

See weather overviewHow to use our weather pages